[[{"header":{"parameterUnit":"m.s-1","parameterCategory":1,"la1":30.2991,"la2":30.254,"lo1":-89.0895,"lo2":-89.0444,"dy":0.0017,"dx":0.0017,"nx":28,"ny":28,"refTime":"2024-05-28T03:00:00:Z","depth":0,"parameterNumber":2,"parameterNumberName":"U-component_of_WINDS"},"data":[0,0,0,0,0,0,0,0,0,0,0,0,0,0,0,0,0,0,0,0,0,0,0,0,0,0,0,0,0,0,0,0,0,0,0,0,0,0,0,0,0,0,0,0,0,0,0,0,0,0,0,0,0,0,0,0,0,0,-0.0498,-0.0497,0,-0.0392,-0.0391,-0.039,-0.0347,-0.0347,-0.0347,-0.0347,-0.0236,-0.0233,-0.023,0,0,0,0,0,0,0,0,0,0,0,0,0,-0.0659,-0.0657,-0.0498,-0.0497,-0.0495,-0.0392,-0.0391,-0.039,-0.0347,-0.0347,-0.0347,-0.0348,-0.0237,-0.0233,-0.0229,0,0,0,0,0,0,0,0,0,0,0,0,0,-0.0575,-0.0656,-0.0498,-0.0462,-0.0457,-0.0393,-0.0391,-0.0389,-0.0347,-0.0347,-0.0347,-0.0348,-0.0238,-0.0234,-0.0229,-0.0192,0,0,-0.0214,-0.0212,0,0,0,0,0,0,0,0,-0.058,-0.0569,-0.0468,-0.0464,-0.0459,-0.0383,-0.0407,-0.0323,-0.0347,-0.0389,-0.0347,-0.0348,-0.0284,-0.0276,-0.0255,-0.0187,-0.0182,-0.0214,-0.0211,-0.0209,-0.0207,0,0,0,0,0,0,0,-0.0586,-0.0573,-0.0456,-0.0467,-0.0461,-0.0449,-0.0438,-0.0391,-0.0336,-0.0385,-0.0382,-0.037,-0.0282,-0.026,-0.0252,-0.018,-0.0214,-0.021,-0.0207,-0.0205,-0.0075,-0.0075,0,0,0,0,0,0,-0.0598,-0.0579,-0.0459,-0.0453,-0.0522,-0.0446,-0.0433,-0.0407,-0.0336,-0.0326,-0.037,-0.0368,-0.0268,-0.0258,-0.0248,-0.0199,-0.0209,-0.0204,-0.0202,-0.0076,-0.0075,-0.0074,0,0,0,0,0,0,-0.0602,-0.0588,-0.0464,-0.0515,-0.0498,-0.0443,-0.0414,-0.0405,-0.0383,-0.0324,-0.0314,-0.0357,-0.0268,-0.0255,-0.0206,-0.0195,-0.0202,-0.0198,-0.0076,-0.0075,-0.0075,-0.0102,0,0,0,0,0,0,-0.0607,-0.0589,-0.0576,-0.0515,-0.0496,-0.0425,-0.0413,-0.0402,-0.0375,-0.0372,-0.031,-0.03,-0.0267,-0.0214,-0.0201,-0.0188,-0.0194,-0.0077,-0.0076,-0.0075,-0.0102,-0.0103,-0.0103,0,0,0,0,0,-0.0613,-0.0587,-0.0575,-0.0561,-0.0477,-0.0424,-0.0413,-0.0376,-0.0374,-0.0359,-0.0322,-0.0302,-0.0198,-0.0209,-0.0195,-0.018,-0.0078,-0.0076,-0.0075,-0.0102,-0.0103,-0.0103,0,0,0,0,0,0,-0.0647,-0.0578,-0.0564,-0.0519,-0.0478,-0.0417,-0.0397,-0.0378,-0.0336,-0.0335,-0.029,-0.0276,-0.0231,-0.0201,-0.0214,-0.014,-0.0136,-0.0132,-0.0162,-0.0162,-0.0162,-0.017,-0.019,0,0,0,0,0,-0.065,-0.0613,-0.0555,-0.052,-0.05,-0.0452,-0.0428,-0.0403,-0.0358,-0.034,-0.0299,-0.0256,-0.0213,-0.0186,-0.0143,-0.0098,-0.0083,-0.0081,-0.0081,-0.0082,-0.0079,-0.0051,-0.0049,-0.007,-0.007,-0.007,0,0,-0.0654,-0.0612,-0.0591,-0.0526,-0.0491,-0.0453,-0.0438,-0.0399,-0.037,-0.0334,-0.0286,-0.0254,-0.0202,-0.0155,-0.0132,-0.0128,-0.007,-0.008,-0.0081,-0.0077,-0.005,-0.0048,-0.0046,-0.0069,-0.0069,-0.007,0,0,-0.0642,-0.0607,-0.0574,-0.054,-0.0488,-0.0456,-0.0449,-0.039,-0.0368,-0.032,-0.0292,-0.0256,-0.0184,-0.0148,-0.012,-0.0096,-0.0076,-0.0083,-0.0084,-0.0059,-0.0057,-0.0055,-0.0045,-0.0043,-0.008,-0.008,-0.008,0,-0.0654,-0.0597,-0.056,-0.0522,-0.0493,-0.046,-0.0426,-0.0394,-0.0331,-0.0311,-0.0308,-0.0217,-0.018,-0.0123,-0.0117,-0.0096,-0.0085,-0.0089,-0.006,-0.0058,-0.0056,-0.0046,-0.0043,-0.0081,-0.0081,-0.0081,-0.0081,0,-0.0614,-0.0574,-0.0554,-0.0494,-0.0464,-0.0428,-0.0384,-0.0357,-0.0335,-0.0303,-0.0254,-0.0208,-0.0156,-0.014,-0.0118,-0.008,-0.008,-0.0069,-0.0064,-0.0056,-0.0046,-0.0042,-0.0083,-0.0082,-0.0082,-0.0082,0,0,-0.062,-0.0541,-0.0534,-0.0506,-0.0446,-0.0415,-0.0377,-0.0327,-0.0304,-0.0262,-0.0228,-0.0168,-0.0158,-0.0126,-0.01,-0.0077,-0.0059,-0.0069,-0.0067,-0.0068,-0.0014,-0.0022,-0.0018,-0.0046,-0.0045,-0.0045,-0.0018,0,-0.06,-0.0533,-0.0498,-0.0444,-0.0407,-0.0375,-0.0342,-0.0301,-0.0271,-0.0234,-0.0199,-0.0157,-0.0147,-0.0128,-0.0105,-0.0067,-0.0048,-0.0068,-0.0013,-0.0012,-0.0027,-0.0013,-0.0021,0.0002,-0.0014,-0.0014,-0.0013,0,-0.0568,-0.0527,-0.047,-0.0414,-0.0397,-0.0368,-0.0319,-0.0284,-0.0237,-0.0216,-0.0182,-0.0155,-0.0113,-0.0112,-0.0053,-0.0067,-0.0043,-0.0021,-0.0019,-0.0012,-0.0012,-0.0005,0.001,0.0013,-0.0007,-0.0007,-0.0008,0,-0.0578,-0.0508,-0.0465,-0.0442,-0.0376,-0.0356,-0.0328,-0.0281,-0.0253,-0.0209,-0.019,-0.0143,-0.0116,-0.0079,-0.004,-0.0043,0.0015,0.002,0.0035,0.0034,0.0046,0.0045,0.0066,0.0061,0.0061,0.0061,0.006,0,-0.0559,-0.0525,-0.0468,-0.0442,-0.0402,-0.0362,-0.0324,-0.0293,-0.0252,-0.0218,-0.0187,-0.0155,-0.0106,-0.0068,-0.0038,0.0007,0.0019,0.0038,0.0046,0.0035,0.0033,0.0053,0.0052,0.0062,0.0061,0.0061,0.0061,0,-0.0563,-0.0524,-0.0475,-0.0416,-0.0401,-0.0374,-0.0324,-0.0296,-0.0264,-0.0221,-0.0209,-0.0158,-0.0112,-0.007,-0.0008,0.0013,0.0059,0.0068,0.0042,0.0047,0.006,0.0058,0.0094,0.0101,0.009,0.009,0.009,0,-0.0553,-0.0527,-0.0466,-0.0441,-0.0414,-0.0374,-0.0346,-0.0305,-0.0276,-0.022,-0.0199,-0.015,-0.011,-0.0037,0.0006,0.0054,0.0065,0.0075,0.0073,0.0062,0.0067,0.0065,0.0068,0.0075,0.0074,0.0074,0.0074,0,-0.054,-0.0522,-0.0482,-0.0436,-0.0403,-0.0364,-0.0324,-0.0305,-0.0257,-0.0226,-0.0178,-0.0147,-0.0084,-0.0036,0.0016,0.0047,0.0069,0.0074,0.0081,0.0071,0.0055,0.0065,0.0042,0.0074,0.0074,0.0074,0.0074,0.0074,-0.0536,-0.0511,-0.0464,-0.0421,-0.0387,-0.035,-0.0321,-0.0286,-0.0246,-0.0192,-0.017,-0.0122,-0.0074,-0.0002,0.0029,0.0068,0.0072,0.0081,0.0083,0.0085,0.0083,0.0048,0.0077,0.0078,0.0078,0.0078,0.0078,0,-0.052,-0.0489,-0.0449,-0.0395,-0.0361,-0.0344,-0.0299,-0.0271,-0.0229,-0.0188,-0.0148,-0.0093,-0.0047,-0.0,0.0049,0.0072,0.0083,0.0084,0.0083,0.009,0.0076,0.0066,0.0074,0.0074,0.0074,0.0074,0.0074,0.0074,-0.0508,-0.0464,-0.0441,-0.0379,-0.0347,-0.03,-0.0276,-0.0242,-0.0208,-0.0149,-0.011,-0.008,-0.0036,0.0017,0.0061,0.0074,0.0091,0.0089,0.0104,0.0091,0.0091,0.0091,0.0081,0.0092,0.0092,0.0114,0.0115,0.0115]},{"header":{"parameterUnit":"m.s-1","parameterCategory":1,"la1":30.2991,"la2":30.254,"lo1":-89.0895,"lo2":-89.0444,"dy":0.0017,"dx":0.0017,"nx":28,"ny":28,"refTime":"2024-05-28T03:00:00:Z","depth":0,"parameterNumber":3,"parameterNumberName":"V-component_of_WINDS"},"data":[0,0,0,0,0,0,0,0,0,0,0,0,0,0,0,0,0,0,0,0,0,0,0,0,0,0,0,0,0,0,0,0,0,0,0,0,0,0,0,0,0,0,0,0,0,0,0,0,0,0,0,0,0,0,0,0,0,0,-0.8413,-0.8412,0,-0.8355,-0.8354,-0.8353,-0.8399,-0.8401,-0.8403,-0.8405,-0.8339,-0.8336,-0.8332,0,0,0,0,0,0,0,0,0,0,0,0,0,-0.8557,-0.8554,-0.8413,-0.8412,-0.8411,-0.8355,-0.8354,-0.8353,-0.8399,-0.8402,-0.8404,-0.8406,-0.834,-0.8336,-0.8332,0,0,0,0,0,0,0,0,0,0,0,0,0,-0.8496,-0.8554,-0.8413,-0.8428,-0.8428,-0.8355,-0.8354,-0.8353,-0.8399,-0.8402,-0.8405,-0.8407,-0.8342,-0.8336,-0.8331,-0.8238,0,0,-0.8314,-0.8312,0,0,0,0,0,0,0,0,-0.85,-0.8491,-0.8426,-0.8426,-0.8427,-0.8388,-0.8381,-0.8314,-0.8398,-0.841,-0.8405,-0.8409,-0.8352,-0.8346,-0.8329,-0.8235,-0.8232,-0.8314,-0.8311,-0.8308,-0.8307,0,0,0,0,0,0,0,-0.8504,-0.8494,-0.839,-0.8425,-0.8426,-0.8435,-0.843,-0.8368,-0.8365,-0.8409,-0.8412,-0.8405,-0.8353,-0.8334,-0.8327,-0.8231,-0.8314,-0.8309,-0.8306,-0.8304,-0.8057,-0.8054,0,0,0,0,0,0,-0.8507,-0.8497,-0.8391,-0.8388,-0.8472,-0.843,-0.8424,-0.8397,-0.8366,-0.8364,-0.8403,-0.8407,-0.8341,-0.8334,-0.8325,-0.8214,-0.8308,-0.8303,-0.83,-0.806,-0.8056,-0.8053,0,0,0,0,0,0,-0.851,-0.8498,-0.8394,-0.8443,-0.8431,-0.8424,-0.8394,-0.8394,-0.8375,-0.8361,-0.836,-0.8384,-0.8344,-0.8333,-0.826,-0.8212,-0.8301,-0.8296,-0.8064,-0.8059,-0.8055,-0.799,0,0,0,0,0,0,-0.8514,-0.8498,-0.8464,-0.8442,-0.8428,-0.8331,-0.8391,-0.8391,-0.8366,-0.8372,-0.8343,-0.8341,-0.8345,-0.8267,-0.8254,-0.8206,-0.8292,-0.8068,-0.8062,-0.8056,-0.7997,-0.7984,-0.7973,0,0,0,0,0,-0.8519,-0.8447,-0.8463,-0.845,-0.8386,-0.8328,-0.832,-0.8328,-0.8362,-0.8327,-0.8318,-0.8342,-0.822,-0.826,-0.8245,-0.8195,-0.8071,-0.8064,-0.8057,-0.8002,-0.7986,-0.7973,0,0,0,0,0,0,-0.8462,-0.8445,-0.8461,-0.838,-0.8356,-0.8336,-0.8292,-0.8311,-0.8274,-0.8281,-0.8291,-0.8284,-0.8207,-0.8193,-0.8238,-0.8103,-0.8151,-0.814,-0.8114,-0.8099,-0.8088,-0.8092,-0.8287,0,0,0,0,0,-0.844,-0.8397,-0.8383,-0.8313,-0.83,-0.8298,-0.8273,-0.8282,-0.8256,-0.8245,-0.823,-0.8202,-0.8158,-0.8128,-0.8086,-0.7995,-0.7989,-0.7953,-0.7941,-0.7932,-0.7922,-0.7872,-0.7856,-0.8028,-0.8028,-0.8029,0,0,-0.8394,-0.8379,-0.8351,-0.8301,-0.8283,-0.8236,-0.8289,-0.8237,-0.8202,-0.8236,-0.8167,-0.8155,-0.8124,-0.8042,-0.8005,-0.8028,-0.7873,-0.7922,-0.7915,-0.791,-0.7863,-0.7847,-0.7832,-0.8023,-0.8024,-0.8025,0,0,-0.8286,-0.8271,-0.8211,-0.8192,-0.8165,-0.8164,-0.815,-0.8127,-0.8121,-0.8052,-0.8077,-0.8034,-0.7957,-0.7934,-0.7912,-0.7796,-0.7816,-0.7782,-0.7719,-0.767,-0.7657,-0.7645,-0.7602,-0.7587,-0.7772,-0.7772,-0.7772,0,-0.8232,-0.8164,-0.8177,-0.8124,-0.81,-0.8132,-0.807,-0.805,-0.8009,-0.7992,-0.8019,-0.7924,-0.7905,-0.7817,-0.7789,-0.7771,-0.7753,-0.7785,-0.7658,-0.7646,-0.7635,-0.7595,-0.7579,-0.7768,-0.7769,-0.7769,-0.7769,0,-0.8098,-0.8051,-0.8005,-0.7968,-0.7939,-0.7881,-0.7884,-0.7853,-0.7864,-0.7859,-0.7788,-0.7767,-0.7721,-0.7701,-0.771,-0.7614,-0.763,-0.7658,-0.7706,-0.7615,-0.7577,-0.7561,-0.7762,-0.7764,-0.7765,-0.7766,0,0,-0.7952,-0.7923,-0.7906,-0.7889,-0.7861,-0.7824,-0.7767,-0.7724,-0.7697,-0.7668,-0.7619,-0.7554,-0.758,-0.7555,-0.7562,-0.7519,-0.7427,-0.7552,-0.7551,-0.7529,-0.7319,-0.7297,-0.7279,-0.7441,-0.7438,-0.7435,-0.7321,0,-0.7843,-0.7746,-0.7756,-0.7663,-0.7619,-0.7648,-0.7598,-0.7575,-0.7569,-0.7529,-0.7522,-0.7475,-0.7513,-0.7498,-0.7457,-0.7447,-0.7385,-0.7455,-0.7393,-0.7391,-0.74,-0.726,-0.7237,-0.713,-0.7306,-0.7304,-0.7302,0,-0.7702,-0.767,-0.7573,-0.7553,-0.7534,-0.749,-0.7451,-0.7413,-0.7386,-0.7385,-0.7358,-0.7372,-0.7312,-0.7363,-0.728,-0.7328,-0.7303,-0.7294,-0.729,-0.7284,-0.734,-0.7249,-0.7096,-0.708,-0.7279,-0.7281,-0.7283,0,-0.7604,-0.7537,-0.747,-0.7455,-0.7429,-0.7397,-0.7384,-0.736,-0.7334,-0.73,-0.7282,-0.7241,-0.7218,-0.7184,-0.7186,-0.7223,-0.7101,-0.7152,-0.7097,-0.7097,-0.7069,-0.7071,-0.691,-0.7055,-0.7055,-0.7055,-0.7056,0,-0.748,-0.742,-0.7426,-0.7385,-0.7318,-0.7329,-0.7261,-0.7251,-0.723,-0.7186,-0.7208,-0.7166,-0.7172,-0.7129,-0.713,-0.706,-0.705,-0.7046,-0.7046,-0.7043,-0.7043,-0.7026,-0.7033,-0.7051,-0.7052,-0.7053,-0.7053,0,-0.7359,-0.7361,-0.7291,-0.7272,-0.7266,-0.7217,-0.7201,-0.7161,-0.7157,-0.7101,-0.7089,-0.7082,-0.7033,-0.7032,-0.6974,-0.6975,-0.689,-0.69,-0.69,-0.6901,-0.6845,-0.685,-0.6667,-0.6643,-0.6804,-0.6803,-0.6802,0,-0.728,-0.7234,-0.7212,-0.7185,-0.7171,-0.7127,-0.7101,-0.711,-0.7081,-0.7047,-0.7011,-0.6964,-0.6927,-0.6846,-0.6835,-0.6791,-0.6799,-0.6738,-0.6792,-0.679,-0.6796,-0.6799,-0.6794,-0.6726,-0.6725,-0.6723,-0.6722,0,-0.7138,-0.7142,-0.7104,-0.7067,-0.7036,-0.7006,-0.6978,-0.6955,-0.696,-0.6926,-0.6877,-0.6849,-0.6791,-0.6744,-0.6701,-0.6686,-0.6703,-0.6705,-0.669,-0.6685,-0.6687,-0.6684,-0.687,-0.6709,-0.671,-0.6711,-0.6712,-0.6713,-0.7035,-0.6996,-0.6974,-0.6931,-0.6912,-0.6886,-0.6847,-0.684,-0.68,-0.6755,-0.6762,-0.6707,-0.668,-0.6626,-0.6607,-0.6562,-0.6583,-0.6561,-0.6555,-0.6549,-0.6543,-0.6695,-0.6554,-0.6555,-0.6555,-0.6555,-0.6556,0,-0.6894,-0.6881,-0.6842,-0.6804,-0.677,-0.6793,-0.6764,-0.6733,-0.6685,-0.6659,-0.6623,-0.6566,-0.652,-0.6506,-0.6461,-0.6428,-0.6435,-0.6415,-0.6417,-0.6413,-0.6527,-0.6545,-0.641,-0.641,-0.6411,-0.6411,-0.6411,-0.6411,-0.6816,-0.6751,-0.6751,-0.6676,-0.6663,-0.6611,-0.6592,-0.6568,-0.6548,-0.6484,-0.6447,-0.6439,-0.6417,-0.6371,-0.6329,-0.6326,-0.6307,-0.6284,-0.6284,-0.6391,-0.6405,-0.6419,-0.6435,-0.628,-0.628,-0.6173,-0.6172,-0.6172]}]]